This is the latest recevied weather packets stored in our database for station/object EA7AVH-10. If no packets are shown the sender has not sent any weather packets the latest 10 day(s).
| Time | Temp. | Humidity | Pressure | Rain* | Wind** | Luminosity | Snow |
|---|---|---|---|---|---|---|---|
| 1777444328 | 17.22° C | 69% | 918.8 hPa | - | - | - | - |
| 1777443427 | 12.78° C | 76% | 918.6 hPa | - | - | - | - |
| 1777442527 | 12.22° C | 76% | 918.4 hPa | - | - | - | - |
| 1777441626 | 11.11° C | 77% | 918.3 hPa | - | - | - | - |
| 1777440725 | 11.11° C | 77% | 918.1 hPa | - | - | - | - |
| 1777439824 | 12.22° C | 76% | 918.1 hPa | - | - | - | - |
| 1777438943 | 12.78° C | 76% | 918.1 hPa | - | - | - | - |
| 1777438042 | 12.78° C | 76% | 918.2 hPa | - | - | - | - |
| 1777437141 | 12.78° C | 76% | 918.4 hPa | - | - | - | - |
| 1777436241 | 12.78° C | 76% | 918.5 hPa | - | - | - | - |
| 1777435340 | 12.78° C | 75% | 918.5 hPa | - | - | - | - |
| 1777434439 | 12.22° C | 76% | 918.6 hPa | - | - | - | - |
| 1777433538 | 12.22° C | 75% | 918.5 hPa | - | - | - | - |
| 1777432637 | 13.33° C | 75% | 918.5 hPa | - | - | - | - |
| 1777431736 | 13.33° C | 74% | 918.4 hPa | - | - | - | - |
| 1777430836 | 13.33° C | 74% | 918.2 hPa | - | - | - | - |
| 1777429934 | 13.33° C | 74% | 918.1 hPa | - | - | - | - |
| 1777429034 | 12.78° C | 74% | 918.2 hPa | - | - | - | - |
| 1777428133 | 12.22° C | 75% | 918.1 hPa | - | - | - | - |
| 1777427232 | 12.22° C | 75% | 918.1 hPa | - | - | - | - |
| 1777426331 | 12.22° C | 75% | 918.2 hPa | - | - | - | - |
| 1777425430 | 12.22° C | 76% | 918.1 hPa | - | - | - | - |
| 1777424530 | 11.67° C | 76% | 918 hPa | - | - | - | - |
| 1777423629 | 12.22° C | 76% | 918.3 hPa | - | - | - | - |
| 1777422728 | 12.22° C | 77% | 918.5 hPa | - | - | - | - |
* Rain since midnight (hover to see other rain measurements)
** Current wind speed in m/s (hover to see current wind gust speed)